Location: ???????
(55.4362°N, 38.1183°E)
Time: 14:48:44
(UTC+00:00)

Lacrosse 4 Rocket - Pass Details

Date: 24 October 2021
Orbit: 537 x 619 km, 68.0° (Epoch: 03 December)

Event Time Altitude Azimuth Distance (km) Brightness Sun altitude
Rises 15:49:19 0° 317° (NW) 2,802 5.6 -15.2°
Reaches altitude 10° 15:51:36 10° 311° (NW) 1,913 4.8 -15.5°
Maximum altitude 15:55:40 43° 240° (WSW) 838 2.6 -16.1°
Drops below altitude 10° 15:59:49 10° 168° (SSE) 1,946 4.0 -16.7°
Enters shadow 16:02:05 - 162° (SSE) 2,829 4.7 -17.0°
